Weather History for Oelwein, IA

Change the Weather History Date:

Saturday, January 19, 2013

  Actual Average Record
Temperature  
Mean Temperature 32 °F -  
Max Temperature 50 °F 27 °F 50 °F (2006)
Min Temperature 12 °F 8 °F -25 °F (1970)
Degree Days  
Heating Degree Days 33    
Moisture  
Dew Point 26 °F    
Average Humidity 75    
Maximum Humidity 100    
Minimum Humidity 50    
Precipitation  
Precipitation 0.00 in - - ()
Sea Level Pressure  
Sea Level Pressure 29.87 in    
Wind  
Wind Speed 12 mph (West)    
Max Wind Speed 38 mph    
Max Gust Speed 48 mph    
Visibility 10 miles    
Events      
Averages and records for this station are not official NWS values.
T = Trace of Precipitation, MM = Missing Value Source: NWS Daily Summary

Daily Weather History Graph

Daily Weather History Graph

Search for Another Location

Airport:

Trip Planner

Search our weather history database for the weather conditions in past years. The results will help you decide how hot, cold, wet, or windy it might be!

Date:

Astronomy

Jan. 19, 2013 Rise Set
Actual Time 7:33 AM CST 5:04 PM CST
Civil Twilight 7:02 AM CST 5:35 PM CST
Nautical Twilight 6:27 AM CST 6:10 PM CST
Astronomical Twilight 5:53 AM CST 6:44 PM CST
Moon 11:32 AM CST (1/19) 1:05 AM CST (1/19)
Length of Visible Light 10h 33m
Length of Day
9h 31m
First Quarter, 57% of the Moon is Illuminated
Jan 19
First Quarter
Jan 26
Full
Feb 3
Last Quarter
Feb 10
New
Feb 17
First Quarter

Hourly Weather History & Observations

Time (CST) Temp. Windchill Dew Point Humidity Pressure Visibility Wind Dir Wind Speed Gust Speed Precip Events Conditions
12:15 AM 33.8 °F 28.6 °F 32.0 °F 93% 29.85 in 10.0 mi WSW 5.8 mph - N/A   Clear
12:35 AM 33.8 °F 28.6 °F 32.0 °F 93% 29.84 in 10.0 mi SW 5.8 mph - N/A   Clear
12:55 AM 32.0 °F 27.5 °F 30.2 °F 93% 29.84 in 10.0 mi SW 4.6 mph - N/A   Clear
1:15 AM 33.8 °F 27.7 °F 32.0 °F 93% 29.84 in 10.0 mi SW 6.9 mph - N/A   Clear
1:35 AM 33.8 °F 28.6 °F 32.0 °F 93% 29.84 in 10.0 mi SSW 5.8 mph - N/A   Clear
1:55 AM 33.8 °F 27.7 °F 32.0 °F 93% 29.84 in 10.0 mi SSW 6.9 mph - N/A   Clear
2:15 AM 33.8 °F 27.7 °F 32.0 °F 93% 29.84 in 10.0 mi SSW 6.9 mph - N/A   Clear
2:35 AM 33.8 °F 27.7 °F 32.0 °F 93% 29.84 in 10.0 mi South 6.9 mph - N/A   Clear
2:55 AM 33.8 °F 28.6 °F 32.0 °F 93% 29.83 in 10.0 mi South 5.8 mph - N/A   Clear
3:15 AM 33.8 °F 29.6 °F 32.0 °F 93% 29.82 in 10.0 mi South 4.6 mph - N/A   Clear
3:35 AM 32.0 °F 26.4 °F 32.0 °F 100% 29.80 in 10.0 mi South 5.8 mph - N/A   Clear
3:55 AM 33.8 °F 29.6 °F 32.0 °F 93% 29.81 in 10.0 mi South 4.6 mph - N/A   Clear
4:15 AM 32.0 °F 25.6 °F 32.0 °F 100% 29.79 in 10.0 mi South 6.9 mph - N/A   Clear
4:35 AM 32.0 °F 26.4 °F 32.0 °F 100% 29.79 in 10.0 mi South 5.8 mph - N/A   Clear
4:55 AM 32.0 °F 28.7 °F 30.2 °F 93% 29.79 in 10.0 mi South 3.5 mph - N/A   Clear
5:15 AM 32.0 °F 26.4 °F 30.2 °F 93% 29.78 in 10.0 mi South 5.8 mph - N/A   Clear
5:35 AM 32.0 °F 27.5 °F 32.0 °F 100% 29.78 in 10.0 mi South 4.6 mph - N/A   Clear
6:35 AM 32.0 °F 28.7 °F 32.0 °F 100% 29.79 in 10.0 mi South 3.5 mph - N/A   Clear
7:15 AM 33.8 °F - 32.0 °F 93% 29.78 in 10.0 mi Calm Calm - N/A   Clear
7:55 AM 33.8 °F - 32.0 °F 93% 29.77 in 10.0 mi Calm Calm - N/A   Clear
7:57 AM 33.8 °F - 32.0 °F 93% 29.77 in 10.0 mi Calm Calm - N/A   Clear
8:15 AM 33.8 °F - 32.0 °F 93% 29.77 in 10.0 mi Calm Calm - N/A   Clear
8:35 AM 33.8 °F 30.8 °F 32.0 °F 93% 29.77 in 10.0 mi South 3.5 mph - N/A   Clear
9:35 AM 35.6 °F 31.7 °F 32.0 °F 87% 29.79 in 10.0 mi SW 4.6 mph - N/A   Clear
9:55 AM 35.6 °F 31.7 °F 32.0 °F 87% 29.79 in 10.0 mi WSW 4.6 mph - N/A   Clear
10:15 AM 37.4 °F 31.4 °F 32.0 °F 81% 29.78 in 10.0 mi SW 8.1 mph - N/A   Clear
10:35 AM 41.0 °F 33.9 °F 32.0 °F 70% 29.78 in 10.0 mi WSW 12.7 mph - N/A   Clear
11:15 AM 42.8 °F 35.4 °F 32.0 °F 66% 29.77 in 10.0 mi West 15.0 mph - N/A   Clear
11:35 AM 44.6 °F 37.4 °F 32.0 °F 61% 29.77 in 10.0 mi West 16.1 mph - N/A   Clear
11:55 AM 44.6 °F 37.8 °F 32.0 °F 61% 29.76 in 10.0 mi West 15.0 mph 21.9 mph N/A   Clear
12:15 PM 46.4 °F 40.4 °F 32.0 °F 57% 29.75 in 10.0 mi West 13.8 mph - N/A   Clear
12:35 PM 46.4 °F 39.8 °F 32.0 °F 57% 29.74 in 10.0 mi West 16.1 mph 19.6 mph N/A   Clear
12:55 PM 48.2 °F - 32.0 °F 54% 29.76 in 10.0 mi WNW 21.9 mph 27.6 mph N/A   Clear
1:15 PM 46.4 °F 38.7 °F 32.0 °F 57% 29.77 in 10.0 mi WNW 20.7 mph 29.9 mph N/A   Clear
1:35 PM 48.2 °F - 32.0 °F 54% 29.77 in 10.0 mi West 16.1 mph 23.0 mph N/A   Clear
1:55 PM 48.2 °F - 32.0 °F 54% 29.76 in 10.0 mi West 17.3 mph - N/A   Clear
2:15 PM 50.0 °F - 32.0 °F 50% 29.76 in 10.0 mi West 15.0 mph 20.7 mph N/A   Clear
2:35 PM 50.0 °F - 32.0 °F 50% 29.78 in 10.0 mi West 20.7 mph 25.3 mph N/A   Clear
2:55 PM 46.4 °F 39.2 °F 32.0 °F 57% 29.79 in 10.0 mi WNW 18.4 mph 25.3 mph N/A   Clear
3:15 PM 46.4 °F 38.1 °F 32.0 °F 57% 29.80 in 10.0 mi WNW 24.2 mph 29.9 mph N/A   Clear
3:35 PM 46.4 °F 38.3 °F 32.0 °F 57% 29.81 in 10.0 mi WNW 23.0 mph 29.9 mph N/A   Clear
3:55 PM 44.6 °F 35.7 °F 32.0 °F 61% 29.83 in 10.0 mi WNW 24.2 mph 33.4 mph N/A   Clear
4:15 PM 42.8 °F 35.1 °F 32.0 °F 66% 29.84 in 10.0 mi West 16.1 mph 25.3 mph N/A   Clear
4:35 PM 42.8 °F 34.0 °F 32.0 °F 66% 29.84 in 10.0 mi WNW 20.7 mph 32.2 mph N/A   Clear
4:55 PM 41.0 °F 32.2 °F 32.0 °F 70% 29.86 in 10.0 mi WNW 18.4 mph 31.1 mph N/A   Clear
5:15 PM 39.2 °F 29.8 °F 32.0 °F 75% 29.87 in 10.0 mi West 18.4 mph 27.6 mph N/A   Clear
5:35 PM 41.0 °F 30.7 °F 30.2 °F 65% 29.88 in 10.0 mi West 25.3 mph 29.9 mph N/A   Clear
5:55 PM 39.2 °F 28.7 °F 30.2 °F 70% 29.90 in 10.0 mi WNW 23.0 mph 33.4 mph N/A   Clear
6:15 PM 35.6 °F 22.5 °F 28.4 °F 75% 29.92 in 10.0 mi WNW 29.9 mph 39.1 mph N/A   Clear
6:35 PM 33.8 °F 21.3 °F 28.4 °F 81% 29.94 in 10.0 mi WNW 24.2 mph 34.5 mph N/A   Clear
6:55 PM 30.2 °F 14.1 °F 21.2 °F 69% 29.97 in 10.0 mi WNW 35.7 mph 48.3 mph N/A   Clear
7:15 PM 30.2 °F 14.7 °F 21.2 °F 69% 29.98 in 10.0 mi WNW 32.2 mph 41.4 mph N/A   Clear
7:35 PM 28.4 °F 11.8 °F 17.6 °F 64% 30.00 in 10.0 mi WNW 34.5 mph 47.2 mph N/A   Clear
7:55 PM 26.6 °F 10.6 °F 14.0 °F 59% 30.01 in 10.0 mi NW 28.8 mph 48.3 mph N/A   Clear
8:15 PM 23.0 °F 3.7 °F 10.4 °F 59% 30.04 in 10.0 mi NW 38.0 mph 48.3 mph N/A   Clear
8:35 PM 21.2 °F 1.9 °F 8.6 °F 58% 30.05 in 10.0 mi NW 34.5 mph 42.6 mph N/A   Clear
8:55 PM 19.4 °F -0.6 °F 8.6 °F 63% 30.05 in 10.0 mi NW 34.5 mph 40.3 mph N/A   Clear
9:15 PM 19.4 °F 1.1 °F 8.6 °F 63% 30.06 in 10.0 mi WNW 27.6 mph 39.1 mph N/A   Clear
9:35 PM 19.4 °F 1.1 °F 6.8 °F 58% 30.08 in 10.0 mi WNW 27.6 mph 41.4 mph N/A   Clear
9:55 PM 17.6 °F -1.6 °F 5.0 °F 58% 30.09 in 10.0 mi NW 28.8 mph 41.4 mph N/A   Clear
10:15 PM 17.6 °F -1.3 °F 5.0 °F 58% 30.11 in 10.0 mi NW 27.6 mph 35.7 mph N/A   Clear
10:35 PM 15.8 °F -4.4 °F 5.0 °F 62% 30.12 in 10.0 mi NW 29.9 mph 36.8 mph N/A   Clear
10:55 PM 14.0 °F -7.1 °F 5.0 °F 67% 30.13 in 10.0 mi NW 31.1 mph 40.3 mph N/A   Clear
11:15 PM 14.0 °F -4.7 °F 5.0 °F 67% 30.14 in 10.0 mi WNW 23.0 mph 31.1 mph N/A   Clear
11:35 PM 14.0 °F -3.9 °F 3.2 °F 62% 30.16 in 10.0 mi NW 20.7 mph 31.1 mph N/A   Clear
11:55 PM 12.2 °F -6.7 °F 3.2 °F 67% 30.16 in 10.0 mi NW 21.9 mph 27.6 mph N/A   Clear